• en France
  • Liste des pays
  • À 7 jours
  • Température de l'eau
  • Carte satellitaire
  • Carte météo
  • Widgets météo
  • user-avatar
    Se connecter

    Météo par heure à Woznice

    Ce jour, 20 Juin, Mercredi

    Heure Température Précipitation Vent Pression Humidité
    00:00 +15°C° 0 mm 2 m/s 753 mmHg 92%
    01:00 +13°C° 0 mm 3 m/s 753 mmHg 92%
    02:00 +13°C° 0 mm 3 m/s 753 mmHg 93%
    03:00 +13°C° 0 mm 3 m/s 753 mmHg 93%
    04:00 +13°C° 0 mm 3 m/s 753 mmHg 93%
    05:00 +14°C° 0 mm 4 m/s 753 mmHg 85%
    06:00 +17°C° 0 mm 4 m/s 754 mmHg 77%
    07:00 +17°C° 0 mm 5 m/s 754 mmHg 68%
    08:00 +19°C° 0 mm 5 m/s 754 mmHg 64%
    09:00 +20°C° 0 mm 5 m/s 754 mmHg 60%
    10:00 +21°C° 0 mm 5 m/s 754 mmHg 55%
    11:00 +22°C° 0 mm 5 m/s 754 mmHg 54%
    12:00 +23°C° 0 mm 5 m/s 754 mmHg 52%
    13:00 +23°C° 0 mm 5 m/s 754 mmHg 51%
    14:00 +23°C° 0 mm 4 m/s 754 mmHg 52%
    15:00 +25°C° 0 mm 4 m/s 753 mmHg 53%
    16:00 +25°C° 0 mm 3 m/s 753 mmHg 54%
    17:00 +24°C° 0 mm 2 m/s 753 mmHg 60%
    18:00 +23°C° 0 mm 2 m/s 753 mmHg 65%
    19:00 +22°C° 0 mm 1 m/s 752 mmHg 71%
    20:00 +20°C° 0 mm 1 m/s 752 mmHg 73%
    21:00 +18°C° 0 mm 2 m/s 752 mmHg 75%
    22:00 +17°C° 0 mm 2 m/s 752 mmHg 77%
    23:00 +17°C° 0 mm 3 m/s 751 mmHg 79%

    Demain, 21 Juin, Jeudi

    Heure Température Précipitation Vent Pression Humidité
    00:00 +16°C° 0 mm 3 m/s 751 mmHg 81%
    01:00 +16°C° 0 mm 3 m/s 751 mmHg 82%
    02:00 +17°C° 0 mm 3 m/s 751 mmHg 82%
    03:00 +18°C° 0 mm 3 m/s 750 mmHg 82%
    04:00 +18°C° 0 mm 3 m/s 750 mmHg 82%
    05:00 +20°C° 0,1 mm 3 m/s 749 mmHg 79%
    06:00 +21°C° 0,1 mm 4 m/s 749 mmHg 76%
    07:00 +22°C° 0,1 mm 5 m/s 749 mmHg 74%
    08:00 +23°C° 0,1 mm 5 m/s 748 mmHg 70%
    09:00 +24°C° 0,1 mm 6 m/s 748 mmHg 67%
    10:00 +26°C° 0,1 mm 6 m/s 747 mmHg 63%
    11:00 +27°C° 0,3 mm 6 m/s 746 mmHg 62%
    12:00 +27°C° 0,3 mm 7 m/s 745 mmHg 60%
    13:00 +28°C° 0,3 mm 7 m/s 745 mmHg 58%
    14:00 +27°C° 0,5 mm 6 m/s 744 mmHg 64%
    15:00 +26°C° 0,5 mm 5 m/s 743 mmHg 70%
    16:00 +26°C° 0,5 mm 5 m/s 742 mmHg 76%
    17:00 +25°C° 1 mm 5 m/s 742 mmHg 79%
    18:00 +22°C° 1 mm 5 m/s 741 mmHg 82%
    19:00 +21°C° 1 mm 5 m/s 741 mmHg 85%
    20:00 +19°C° 0,3 mm 5 m/s 741 mmHg 87%
    21:00 +17°C° 0,3 mm 4 m/s 741 mmHg 90%
    22:00 +14°C° 0,3 mm 4 m/s 741 mmHg 93%
    23:00 +13°C° 0,4 mm 4 m/s 742 mmHg 92%

    Après-demain, 22 Juin, Vendredi

    Heure Température Précipitation Vent Pression Humidité
    00:00 +12°C° 0,4 mm 5 m/s 742 mmHg 92%
    01:00 +10°C° 0,4 mm 5 m/s 742 mmHg 91%
    02:00 +10°C° 0 mm 5 m/s 743 mmHg 90%
    03:00 +9°C° 0 mm 5 m/s 743 mmHg 89%
    04:00 +9°C° 0 mm 6 m/s 744 mmHg 87%
    05:00 +10°C° 0 mm 6 m/s 744 mmHg 81%
    06:00 +10°C° 0 mm 7 m/s 744 mmHg 75%
    07:00 +11°C° 0 mm 7 m/s 744 mmHg 69%
    08:00 +12°C° 0 mm 7 m/s 744 mmHg 66%
    09:00 +13°C° 0 mm 8 m/s 744 mmHg 62%
    10:00 +15°C° 0 mm 8 m/s 744 mmHg 58%
    11:00 +15°C° 0,1 mm 8 m/s 744 mmHg 58%
    12:00 +15°C° 0,1 mm 8 m/s 744 mmHg 59%
    13:00 +15°C° 0,1 mm 9 m/s 744 mmHg 60%
    14:00 +15°C° 0,3 mm 8 m/s 745 mmHg 64%
    15:00 +15°C° 0,3 mm 8 m/s 745 mmHg 67%
    16:00 +15°C° 0,3 mm 7 m/s 745 mmHg 71%
    17:00 +14°C° 0,2 mm 6 m/s 745 mmHg 75%
    18:00 +13°C° 0,2 mm 4 m/s 746 mmHg 80%
    19:00 +13°C° 0,2 mm 3 m/s 746 mmHg 84%
    20:00 +12°C° 0 mm 3 m/s 746 mmHg 86%
    21:00 +11°C° 0 mm 3 m/s 746 mmHg 88%
    22:00 +10°C° 0 mm 3 m/s 747 mmHg 90%
    23:00 +9°C° 0 mm 3 m/s 746 mmHg 88%

    23 Juin, Samedi

    Heure Température Précipitation Vent Pression Humidité
    00:00 +8°C° 0 mm 4 m/s 746 mmHg 87%
    01:00 +8°C° 0 mm 4 m/s 746 mmHg 85%
    02:00 +8°C° 0 mm 4 m/s 746 mmHg 87%
    03:00 +8°C° 0 mm 4 m/s 746 mmHg 88%
    04:00 +9°C° 0 mm 3 m/s 747 mmHg 89%
    05:00 +10°C° 0,1 mm 4 m/s 747 mmHg 87%
    06:00 +11°C° 0,1 mm 4 m/s 747 mmHg 86%
    07:00 +12°C° 0,1 mm 5 m/s 747 mmHg 85%
    08:00 +13°C° 0,4 mm 5 m/s 747 mmHg 84%
    09:00 +13°C° 0,4 mm 5 m/s 747 mmHg 83%
    10:00 +14°C° 0,4 mm 5 m/s 747 mmHg 81%
    11:00 +13°C° 0,9 mm 5 m/s 747 mmHg 83%
    12:00 +13°C° 0,9 mm 5 m/s 746 mmHg 85%
    13:00 +13°C° 0,9 mm 4 m/s 746 mmHg 87%
    14:00 +14°C° 0,7 mm 5 m/s 746 mmHg 85%
    15:00 +14°C° 0,7 mm 5 m/s 747 mmHg 84%
    16:00 +15°C° 0,7 mm 5 m/s 747 mmHg 82%
    17:00 +14°C° 0,2 mm 4 m/s 747 mmHg 84%
    18:00 +13°C° 0,2 mm 4 m/s 747 mmHg 85%
    19:00 +12°C° 0,2 mm 3 m/s 747 mmHg 87%
    20:00 +11°C° 0 mm 3 m/s 748 mmHg 89%
    21:00 +10°C° 0 mm 3 m/s 748 mmHg 91%
    22:00 +9°C° 0 mm 3 m/s 748 mmHg 94%
    23:00 +9°C° 0 mm 3 m/s 748 mmHg 94%

    24 Juin, Dimanche

    Heure Température Précipitation Vent Pression Humidité
    00:00 +8°C° 0 mm 3 m/s 749 mmHg 94%
    01:00 +8°C° 0 mm 3 m/s 749 mmHg 94%
    02:00 +8°C° 0 mm 3 m/s 749 mmHg 94%
    03:00 +8°C° 0 mm 3 m/s 749 mmHg 94%
    04:00 +8°C° 0 mm 3 m/s 749 mmHg 94%
    05:00 +10°C° 0 mm 3 m/s 750 mmHg 89%
    06:00 +12°C° 0 mm 3 m/s 750 mmHg 85%
    07:00 +14°C° 0 mm 3 m/s 750 mmHg 80%
    08:00 +14°C° 0,2 mm 3 m/s 750 mmHg 78%
    09:00 +16°C° 0,2 mm 3 m/s 750 mmHg 75%
    10:00 +17°C° 0,2 mm 4 m/s 751 mmHg 73%
    11:00 +17°C° 0,3 mm 4 m/s 751 mmHg 71%
    12:00 +18°C° 0,3 mm 4 m/s 751 mmHg 68%
    13:00 +17°C° 0,3 mm 5 m/s 751 mmHg 66%
    14:00 +19°C° 0,1 mm 4 m/s 751 mmHg 63%
    15:00 +19°C° 0,1 mm 4 m/s 751 mmHg 61%
    16:00 +19°C° 0,1 mm 4 m/s 751 mmHg 58%
    17:00 +18°C° 0 mm 3 m/s 752 mmHg 63%
    18:00 +17°C° 0 mm 3 m/s 752 mmHg 69%
    19:00 +16°C° 0 mm 2 m/s 752 mmHg 74%
    20:00 +15°C° 0 mm 2 m/s 752 mmHg 80%
    21:00 +13°C° 0 mm 2 m/s 753 mmHg 86%
    22:00 +12°C° 0 mm 2 m/s 753 mmHg 91%
    23:00 +10°C° 0 mm 2 m/s 753 mmHg 92%

    25 Juin, Lundi

    Heure Température Précipitation Vent Pression Humidité
    00:00 +9°C° 0 mm 2 m/s 753 mmHg 93%
    01:00 +9°C° 0 mm 2 m/s 753 mmHg 93%
    02:00 +9°C° 0 mm 2 m/s 754 mmHg 92%
    03:00 +10°C° 0 mm 1 m/s 754 mmHg 91%
    04:00 +10°C° 0 mm 1 m/s 754 mmHg 89%
    05:00 +12°C° 0 mm 2 m/s 754 mmHg 82%
    06:00 +14°C° 0 mm 2 m/s 754 mmHg 75%
    07:00 +16°C° 0 mm 2 m/s 755 mmHg 68%
    08:00 +17°C° 0,1 mm 2 m/s 755 mmHg 65%
    09:00 +19°C° 0,1 mm 2 m/s 755 mmHg 61%
    10:00 +20°C° 0,1 mm 3 m/s 755 mmHg 58%
    11:00 +20°C° 0,2 mm 3 m/s 755 mmHg 60%
    12:00 +20°C° 0,2 mm 3 m/s 755 mmHg 62%
    13:00 +21°C° 0,2 mm 3 m/s 755 mmHg 64%
    14:00 +21°C° 0,1 mm 3 m/s 755 mmHg 64%
    15:00 +21°C° 0,1 mm 3 m/s 755 mmHg 63%
    16:00 +21°C° 0,1 mm 3 m/s 755 mmHg 62%
    17:00 +20°C° 0,1 mm 3 m/s 755 mmHg 67%
    18:00 +19°C° 0,1 mm 2 m/s 755 mmHg 72%
    19:00 +18°C° 0,1 mm 2 m/s 755 mmHg 77%
    20:00 +17°C° 0 mm 2 m/s 756 mmHg 81%
    21:00 +16°C° 0 mm 2 m/s 756 mmHg 85%
    22:00 +15°C° 0 mm 2 m/s 756 mmHg 89%
    23:00 +14°C° 0 mm 2 m/s 757 mmHg 91%
    Voir plus